Location: Newark
(54.6833°N, 25.2833°E)
Time: 08:44:16
(UTC+00:00)

Tiros 1 despin weight - Pass Details

Date: 24 November 2019
Orbit: 594 x 642 km, 48.2° (Epoch: 07 December)

Event Time Altitude Azimuth Distance (km) Brightness Sun altitude
Rises 08:57:50 0° 191° (S) 2,821 ? 13.4°
Reaches altitude 10° 09:02:50 10° 142° (SE) 1,923 ? 13.6°
Maximum altitude 09:02:52 10° 141° (SE) 1,923 ? 13.6°
Drops below altitude 10° 09:02:58 10° 140° (SE) 1,924 ? 13.6°
Sets 09:07:55 0° 92° (E) 2,835 ? 13.8°
